Location: Newark
(50.8086°N, 4.3114°E)
Time: 19:53:30
(UTC+00:00)

XW-2D - Pass Details

Date: 29 January 2020
Orbit: 506 x 528 km, 97.5° (Epoch: 17 February)

Event Time Altitude Azimuth Distance (km) Brightness Sun altitude
Rises 06:23:56 0° 7° (N) 2,631 ? -9.6°
Reaches altitude 10° 06:26:07 10° 360° (N) 1,738 ? -9.3°
Maximum altitude 06:29:37 39° 291° (WNW) 770 ? -8.7°
Drops below altitude 10° 06:33:06 10° 221° (SW) 1,722 ? -8.2°
Sets 06:35:15 0° 214° (SSW) 2,602 ? -7.9°
